Zurück zum Katalog

CZ-2D DEB

AktivSSO
NORAD 36292·DEBRIS·🇨🇳 China

Gestartet Nov 5, 2008 von Jiuquan Satellite Launch Center

Loading…

Nächste Überflüge (nächste 24 Stunden)

TLE

AktuellSource: Space-Track

Epoche: Sep 12, 2026, 01:43 UTC

1 36292U 08056H   26255.07164564  .00000450  00000-0  27731-3 0  9996
2 36292  98.7571 358.2131 0154077 339.6371  19.8696 14.04616214911290

Verfolge CZ-2D DEB in Echtzeit mit AllMySat

Download on the App Store